Temp
7 6 5 5 5 5 4 4 4 3 3 3 3 3 3 2 1 1 0 0 -0 -1 -0 -1 -2 -1 -1 -1 -1 -2 -2 -2 -2 -2 -1 -1 -1 -1 -1 -2 -3 -2 -2
6 6 6 5 4 4 4 4 4 4 3 3 2 2 2 1 1 1 0 -0 -0 -0 -1 -1 -1 -2 -2 -2 -2 -3 -3 -3 -2 -3 -3 -2 -2 -2 -2 -3 -3 -3 -4
6 6 6 5 4 4 4 3 3 3 3 2 2 2 1 1 0 0 -0 -1 -1 -2 -2 -1 -2 -2 -2 -2 -3 -3 -3 -3 -3 -3 -3 -3 -3 -3 -2 -3 -3 -3 -4
3 5 4 4 4 3 3 3 3 2 2 2 1 1 1 0 0 -0 -1 -1 -1 -1 -1 -1 -2 -2 -3 -3 -3 -3 -3 -3 -3 -4 -4 -4 -5 -4 -4 -3 -4 -4 -4
2 3 3 3 3 3 3 3 2 1 1 1 1 0 0 -0 -1 -1 -1 -1 -1 -1 -2 -2 -3 -3 -3 -3 -3 -3 -4 -4 -4 -5 -5 -5 -6 -7 -8 -5 -4 -5 -5
3 3 3 2 3 3 3 2 1 1 -0 -0 0 0 0 0 0 -0 -1 -1 -2 -2 -3 -4 -4 -4 -4 -4 -4 -4 -5 -5 -5 -6 -7 -7 -6 -6 -8 -8 -7 -6 -6
2 1 1 1 1 1 1 1 1 0 -0 -1 -1 -1 -1 -1 -2 -2 -3 -3 -3 -4 -4 -4 -4 -4 -5 -5 -6 -6 -7 -7 -8 -9 -9 -10 -10 -10 -10 -10 -10 -9 -7
1 -0 -0 -1 -0 0 1 0 -0 -1 -1 -1 -1 -2 -2 -3 -3 -4 -4 -4 -4 -4 -4 -5 -5 -5 -6 -7 -8 -9 -9 -10 -10 -10 -10 -10 -10 -10 -10 -11 -11 -10 -10
-0 -1 -1 -2 -1 0 -0 -0 -1 -1 -2 -2 -2 -3 -3 -3 -4 -4 -5 -5 -5 -5 -5 -5 -6 -7 -9 -9 -10 -10 -10 -11 -11 -12 -12 -12 -12 -11 -11 -11 -11 -11 -11
-0 -1 -1 -2 -2 -2 -2 -3 -2 -3 -3 -3 -3 -4 -4 -5 -5 -5 -5 -5 -5 -6 -6 -7 -8 -9 -10 -10 -11 -11 -11 -11 -12 -12 -12 -12 -13 -13 -13 -13 -13 -13 -13
-0 -1 -1 -2 -2 -2 -3 -3 -4 -4 -4 -4 -5 -5 -5 -6 -6 -5 -6 -6 -7 -8 -8 -9 -10 -11 -12 -12 -13 -13 -13 -13 -13 -14 -14 -14 -15 -14 -14 -14 -14 -14 -14
-1 -2 -2 -3 -2 -3 -4 -4 -5 -5 -5 -6 -5 -6 -6 -6 -6 -6 -7 -8 -7 -8 -10 -11 -11 -12 -12 -13 -13 -13 -14 -14 -15 -15 -15 -15 -15 -15 -15 -15 -15 -15 -15
-2 -2 -3 -2 -3 -3 -4 -4 -5 -6 -6 -6 -6 -6 -6 -6 -7 -7 -8 -8 -9 -9 -11 -12 -12 -12 -13 -13 -14 -14 -15 -14 -15 -16 -15 -15 -15 -15 -15 -15 -15 -15 -15
-2 -2 -2 -3 -3 -4 -4 -5 -5 -7 -7 -7 -7 -7 -7 -7 -8 -8 -9 -9 -10 -11 -12 -13 -14 -14 -14 -14 -15 -15 -15 -15 -16 -15 -16 -16 -16 -16 -16 -15 -16 -16 -16
-1 -1 -2 -3 -4 -4 -4 -6 -7 -7 -8 -8 -8 -8 -8 -8 -8 -9 -10 -11 -11 -12 -14 -14 -14 -15 -15 -16 -16 -16 -15 -16 -16 -16 -16 -16 -16 -17 -17 -17 -16 -16 -16
-2 -3 -3 -3 -3 -4 -6 -7 -8 -9 -8 -9 -10 -10 -11 -11 -10 -11 -12 -12 -14 -14 -14 -15 -15 -15 -16 -16 -16 -15 -16 -16 -16 -16 -16 -16 -17 -17 -18 -18 -17 -16 -16
-3 -3 -4 -4 -6 -6 -9 -9 -9 -10 -10 -10 -11 -11 -12 -12 -13 -12 -14 -14 -14 -15 -15 -15 -15 -15 -16 -16 -16 -16 -16 -17 -17 -17 -17 -17 -17 -17 -17 -17 -17 -17 -16
-5 -5 -5 -6 -7 -9 -8 -9 -9 -10 -10 -11 -11 -12 -12 -12 -13 -13 -15 -15 -15 -15 -15 -15 -15 -16 -16 -17 -16 -17 -17 -17 -17 -17 -17 -18 -17 -18 -18 -18 -17 -17 -17
-5 -5 -7 -8 -9 -9 -9 -9 -10 -10 -11 -11 -12 -12 -12 -12 -13 -14 -15 -15 -15 -15 -15 -15 -16 -16 -16 -17 -17 -17 -17 -17 -17 -18 -18 -18 -18 -18 -18 -18 -17 -17 -17
-5 -7 -9 -9 -9 -10 -10 -10 -11 -11 -12 -11 -11 -11 -12 -13 -13 -14 -14 -15 -15 -15 -15 -16 -16 -16 -17 -17 -17 -17 -18 -18 -18 -18 -18 -18 -19 -19 -19 -19 -18 -18 -18
-9 -9 -9 -9 -10 -10 -11 -11 -12 -12 -12 -12 -11 -13 -12 -13 -14 -14 -15 -15 -15 -15 -15 -16 -16 -17 -17 -17 -17 -18 -18 -18 -18 -19 -19 -19 -19 -19 -19 -19 -19 -18 -18
-9 -10 -10 -10 -11 -11 -12 -13 -13 -13 -13 -13 -13 -13 -13 -14 -14 -15 -15 -16 -16 -16 -16 -16 -16 -16 -17 -17 -18 -18 -18 -19 -19 -19 -19 -19 -19 -19 -19 -19 -18 -18 -18
-9 -10 -10 -11 -11 -12 -13 -13 -13 -14 -14 -13 -13 -14 -14 -14 -14 -15 -16 -16 -16 -16 -16 -16 -16 -16 -17 -17 -18 -18 -18 -19 -19 -19 -19 -19 -19 -19 -19 -19 -18 -18 -18
-10 -12 -11 -11 -13 -13 -13 -13 -14 -14 -14 -14 -14 -14 -15 -15 -15 -15 -16 -16 -16 -16 -16 -16 -17 -17 -17 -17 -18 -18 -18 -18 -19 -19 -19 -19 -19 -19 -18 -18 -18 -18 -18
-11 -11 -12 -13 -13 -14 -13 -13 -14 -14 -14 -14 -14 -15 -15 -15 -15 -16 -16 -16 -16 -16 -16 -17 -17 -17 -17 -17 -18 -18 -18 -18 -18 -18 -18 -18 -18 -18 -18 -18 -18 -18 -18
-11 -12 -12 -12 -13 -13 -13 -13 -14 -14 -14 -14 -15 -15 -15 -15 -16 -16 -16 -16 -16 -16 -17 -17 -17 -17 -17 -18 -18 -18 -18 -18 -18 -18 -18 -18 -18 -18 -18 -18 -18 -17 -17
Height
3158 3156 3156 3156 3157 3159 3159 3161 3158 3159 3157 3154 3152 3151 3148 3145 3143 3140 3135 3134 3130 3129 3126 3122 3118 3115 3110 3108 3104 3100 3097 3094 3093 3088 3086 3083 3082 3081 3080 3078 3076 3075 3074
3154 3155 3155 3155 3156 3157 3157 3157 3156 3155 3154 3150 3148 3147 3144 3141 3139 3136 3130 3128 3122 3119 3117 3112 3107 3103 3099 3097 3094 3089 3085 3082 3082 3078 3074 3069 3068 3070 3070 3068 3067 3065 3064
3152 3153 3154 3154 3154 3154 3154 3153 3151 3150 3150 3145 3141 3141 3138 3135 3132 3130 3126 3121 3115 3110 3106 3101 3097 3092 3088 3086 3083 3079 3075 3070 3071 3069 3065 3059 3053 3052 3055 3056 3057 3056 3055
3149 3149 3151 3152 3152 3152 3150 3148 3146 3143 3142 3140 3136 3133 3131 3129 3125 3121 3116 3111 3109 3103 3098 3092 3087 3082 3078 3074 3071 3068 3064 3060 3057 3054 3051 3049 3045 3040 3036 3041 3042 3048 3045
3148 3148 3149 3148 3148 3147 3146 3144 3140 3136 3131 3132 3129 3126 3123 3120 3116 3112 3106 3101 3095 3091 3087 3083 3079 3075 3071 3067 3061 3056 3051 3048 3043 3040 3036 3033 3032 3031 3025 3021 3023 3026 3031
3148 3147 3146 3143 3141 3142 3139 3138 3135 3131 3126 3120 3120 3117 3114 3110 3105 3100 3095 3090 3087 3083 3078 3074 3069 3064 3059 3053 3049 3043 3037 3033 3029 3025 3020 3016 3013 3011 3009 3008 3009 3007 3011
3146 3145 3142 3140 3137 3134 3132 3131 3129 3127 3123 3118 3113 3108 3104 3100 3096 3091 3086 3082 3078 3073 3068 3063 3058 3051 3044 3038 3033 3027 3022 3018 3013 3010 3008 3005 3002 2999 2996 2993 2992 2991 2992
3143 3141 3138 3135 3133 3130 3128 3126 3124 3121 3117 3112 3106 3101 3097 3091 3086 3081 3075 3071 3066 3060 3054 3048 3042 3037 3031 3025 3019 3014 3010 3007 3004 3001 2998 2995 2993 2990 2988 2985 2982 2981 2980
3140 3139 3136 3132 3128 3126 3124 3120 3116 3113 3108 3103 3097 3092 3089 3083 3078 3072 3066 3061 3056 3051 3044 3039 3032 3026 3020 3014 3009 3005 3002 3000 2995 2993 2990 2987 2985 2983 2981 2978 2975 2973 2971
3137 3136 3132 3128 3124 3120 3117 3112 3107 3104 3099 3093 3088 3084 3079 3073 3068 3063 3057 3053 3047 3041 3034 3028 3021 3015 3010 3006 3003 2999 2995 2992 2988 2986 2984 2981 2979 2975 2974 2971 2968 2965 2963
3133 3131 3127 3124 3119 3116 3111 3106 3100 3094 3089 3084 3080 3075 3070 3065 3060 3054 3049 3042 3035 3029 3022 3015 3011 3006 3002 2999 2995 2991 2988 2984 2981 2977 2974 2971 2969 2967 2964 2962 2961 2959 2957
3130 3126 3121 3116 3114 3109 3105 3098 3091 3085 3080 3076 3072 3067 3061 3056 3052 3045 3039 3033 3025 3018 3012 3007 3004 3001 2997 2993 2988 2984 2979 2975 2970 2968 2965 2963 2961 2958 2956 2954 2952 2951 2950
3126 3121 3115 3112 3108 3103 3097 3089 3081 3077 3073 3068 3063 3058 3051 3048 3043 3036 3029 3023 3016 3011 3006 3001 2997 2993 2990 2985 2980 2975 2970 2965 2963 2960 2957 2954 2951 2949 2946 2945 2942 2941 2939
3119 3114 3110 3105 3099 3094 3088 3080 3073 3070 3065 3060 3054 3049 3042 3040 3033 3026 3020 3014 3008 3002 2997 2993 2988 2984 2980 2976 2970 2965 2962 2958 2954 2951 2948 2944 2942 2939 2936 2934 2932 2930 2929
3114 3110 3105 3099 3092 3086 3077 3072 3067 3062 3056 3051 3046 3041 3032 3028 3022 3016 3009 3004 2998 2992 2988 2983 2979 2975 2971 2965 2961 2957 2953 2948 2944 2941 2938 2934 2931 2929 2926 2923 2919 2918 2918
3107 3101 3096 3089 3083 3076 3070 3065 3058 3052 3049 3043 3036 3030 3022 3016 3012 3006 3001 2995 2990 2985 2980 2976 2971 2967 2962 2956 2952 2949 2944 2939 2934 2930 2927 2923 2921 2919 2915 2911 2909 2909 2907
3097 3091 3086 3079 3072 3066 3061 3056 3051 3045 3040 3035 3029 3024 3015 3008 3006 2999 2993 2988 2983 2978 2973 2969 2964 2959 2955 2949 2944 2940 2934 2929 2924 2919 2915 2912 2910 2907 2904 2902 2900 2899 2897
3089 3084 3077 3071 3065 3061 3056 3051 3045 3038 3033 3027 3020 3015 3005 3001 2998 2991 2987 2982 2977 2972 2966 2962 2957 2953 2949 2942 2936 2931 2925 2920 2914 2909 2905 2901 2899 2896 2893 2890 2889 2888 2887
3080 3073 3068 3066 3062 3057 3051 3047 3041 3033 3025 3019 3011 3005 2996 2990 2989 2986 2981 2976 2971 2965 2959 2955 2951 2946 2942 2936 2929 2922 2917 2910 2905 2900 2896 2892 2888 2885 2882 2880 2879 2878 2877
3075 3070 3067 3063 3057 3052 3045 3038 3032 3026 3020 3011 3000 2998 2993 2987 2982 2978 2974 2970 2964 2958 2953 2950 2946 2940 2934 2928 2920 2913 2907 2901 2896 2892 2887 2883 2879 2876 2873 2872 2870 2869 2869
3070 3066 3061 3056 3049 3042 3035 3027 3023 3018 3010 3005 2994 2988 2987 2982 2975 2971 2967 2963 2958 2952 2949 2945 2940 2935 2928 2921 2913 2907 2900 2893 2887 2882 2878 2875 2872 2869 2867 2865 2863 2862 2861
3062 3058 3051 3045 3037 3032 3027 3019 3013 3008 3000 2994 2988 2982 2977 2972 2968 2964 2961 2956 2952 2948 2943 2939 2935 2929 2922 2914 2907 2901 2894 2887 2880 2876 2872 2869 2866 2864 2862 2859 2857 2856 2855
3053 3047 3041 3035 3029 3022 3018 3010 3004 2996 2989 2985 2980 2974 2971 2966 2963 2959 2955 2950 2947 2943 2939 2934 2929 2923 2917 2910 2903 2896 2889 2883 2876 2872 2868 2864 2862 2859 2857 2855 2853 2851 2850
3045 3038 3031 3025 3019 3015 3009 3003 2994 2986 2981 2975 2971 2967 2963 2959 2956 2954 2949 2946 2942 2939 2934 2929 2924 2918 2912 2905 2898 2891 2884 2878 2874 2869 2866 2862 2859 2857 2854 2852 2850 2848 2848
3037 3031 3023 3017 3011 3005 2998 2992 2984 2979 2973 2967 2963 2960 2956 2952 2950 2947 2944 2942 2938 2934 2929 2925 2919 2914 2907 2900 2893 2886 2879 2874 2871 2867 2864 2861 2858 2855 2853 2851 2848 2847 2846
3027 3021 3016 3009 3003 2996 2990 2983 2976 2972 2967 2962 2958 2954 2950 2947 2945 2942 2941 2938 2935 2930 2926 2921 2917 2912 2904 2897 2891 2884 2878 2873 2869 2866 2862 2860 2857 2854 2852 2850 2848 2846 2845
Wind_Speed
22 28 26 29 33 28 25 22 26 27 28 26 28 29 32 33 31 33 37 39 42 42 45 48 51 46 45 46 46 49 49 48 46 45 47 45 43 43 43 43 44 45 46
27 29 30 29 24 21 22 21 19 17 20 25 28 29 31 32 33 36 41 44 47 48 47 51 52 50 48 45 43 43 44 44 41 41 42 46 46 44 43 42 44 43 42
19 23 23 19 14 13 15 17 21 24 24 28 32 31 32 35 37 38 41 44 46 48 53 54 52 50 47 45 41 40 41 45 44 44 47 49 53 53 50 47 43 40 39
12 9 9 11 13 15 17 22 27 29 29 29 33 35 35 37 38 40 43 47 48 53 53 51 50 49 47 46 44 46 48 50 52 54 55 55 55 57 60 56 51 43 44
9 10 14 17 17 19 22 25 28 31 34 31 30 33 36 37 40 44 48 50 50 47 47 48 45 45 47 49 51 54 56 57 59 58 58 58 54 48 48 59 59 56 49
10 15 17 19 24 25 28 28 30 29 31 35 32 34 35 38 41 43 44 45 45 44 42 42 45 48 51 53 55 58 59 59 57 52 49 51 54 54 49 48 53 56 56
12 11 16 20 23 26 30 32 32 29 30 31 36 41 43 41 40 39 40 41 41 40 42 45 50 54 56 57 56 53 49 47 45 43 40 39 39 40 42 43 45 49 52
11 10 14 21 26 28 29 30 30 30 35 40 41 41 38 36 37 38 39 39 42 47 51 53 55 55 54 52 47 40 41 39 38 36 36 36 33 34 35 37 37 36 39
12 13 14 19 29 30 28 32 30 34 40 39 39 37 37 38 38 38 41 44 47 49 51 52 53 50 46 42 38 36 35 35 35 32 30 29 32 31 30 31 32 32 32
11 12 21 25 29 33 33 38 42 45 45 42 38 36 37 36 37 41 43 44 47 49 50 50 48 44 40 36 34 32 32 33 32 30 30 33 34 33 29 27 25 31 32
21 18 25 31 29 36 37 37 45 52 45 38 36 37 37 38 39 40 44 47 49 47 47 45 40 32 28 28 27 34 35 34 37 37 33 29 29 27 29 30 29 28 29
14 18 22 24 36 36 41 40 46 51 39 36 38 38 40 40 41 43 46 47 48 47 45 34 33 32 33 33 38 41 39 38 32 34 32 35 33 34 30 30 30 29 28
16 21 23 33 30 37 45 50 53 43 34 35 38 38 42 42 43 47 48 46 45 43 36 35 35 34 39 45 43 40 35 38 32 32 34 34 33 32 31 31 32 32 32
19 26 29 36 45 46 50 49 44 34 38 36 39 41 44 44 47 47 45 42 40 35 34 35 34 35 37 37 37 36 34 34 34 34 35 35 35 35 36 36 34 34 36
28 39 44 49 47 51 48 39 36 36 33 35 39 41 48 46 47 44 42 40 38 37 34 32 33 33 33 33 33 36 36 35 36 36 36 36 35 35 36 36 40 39 36
41 39 41 41 45 40 34 36 34 36 35 37 40 40 41 50 48 40 35 35 34 33 34 35 32 32 32 35 38 36 33 33 35 36 35 35 34 32 31 32 35 34 32
40 33 39 41 37 30 28 35 36 36 43 42 37 30 40 48 45 38 33 36 35 36 36 33 33 33 32 34 36 34 34 36 36 37 36 35 34 33 34 34 34 33 33
36 39 37 36 32 30 38 39 28 36 48 47 42 41 44 44 44 40 36 36 36 36 36 33 31 29 29 34 36 36 36 37 38 37 36 35 33 32 32 32 33 33 34
37 38 36 32 32 30 32 38 44 44 41 47 32 39 33 41 41 45 37 38 37 37 34 29 28 30 31 33 36 37 35 34 35 33 32 30 30 29 29 30 29 29 28
34 31 26 27 28 32 37 38 37 37 40 43 36 41 35 27 42 42 40 39 35 33 31 26 28 31 33 35 36 36 35 35 33 31 30 28 26 25 25 24 25 25 23
21 22 28 33 36 43 42 38 36 33 39 43 38 40 48 34 42 39 40 37 31 31 29 27 28 31 33 35 35 35 34 33 33 32 29 24 21 21 23 23 23 24 23
28 32 37 41 39 41 38 36 33 37 43 38 46 37 34 35 35 37 37 30 32 29 28 27 28 31 34 35 35 34 34 33 34 29 25 22 20 19 18 19 20 20 19
40 42 39 40 41 35 31 33 39 42 45 40 40 44 41 39 35 35 29 29 27 26 27 28 30 33 34 34 33 32 32 31 26 23 22 20 17 16 15 15 15 13 9
40 33 41 41 38 31 38 43 41 43 40 37 37 40 36 31 32 30 22 25 24 24 27 28 30 32 34 33 33 32 31 24 20 19 17 16 15 14 13 12 9 7 8
38 40 40 37 38 40 43 44 41 36 35 34 31 31 28 31 31 20 21 21 22 25 27 28 29 32 34 33 32 35 29 22 19 17 16 14 13 11 11 10 8 4 5
39 41 41 43 43 45 43 40 32 35 33 30 26 27 27 26 18 17 18 20 22 24 25 27 27 28 32 32 31 32 26 20 17 16 15 13 12 11 10 9 9 8 6
Wind_Direction
202 205 211 227 244 248 244 258 268 280 287 287 285 288 290 289 291 292 290 294 297 297 300 301 309 305 301 300 297 294 291 289 288 284 285 285 281 280 281 282 284 284 285
208 217 227 244 259 257 266 273 279 288 293 291 287 285 285 284 284 286 290 293 296 301 304 305 307 303 299 296 294 292 289 286 286 287 287 287 282 281 281 279 280 281 283
230 232 239 248 258 267 275 283 293 299 299 288 288 289 287 288 289 289 291 294 297 301 301 304 303 300 299 298 296 292 290 288 286 286 288 288 285 284 279 276 272 269 270
245 255 253 258 266 279 294 305 305 300 293 286 288 291 291 291 292 293 294 296 298 296 299 300 301 302 300 298 294 290 288 288 288 286 286 284 284 284 282 276 272 263 264
243 272 271 270 274 286 302 310 305 298 295 292 291 292 294 294 295 295 294 296 297 302 302 298 296 293 291 291 293 293 291 288 289 288 287 284 282 276 270 275 274 271 254
270 279 287 299 298 301 312 319 315 307 306 308 307 304 305 303 299 296 298 297 298 298 295 294 294 295 295 293 292 292 293 292 291 289 286 285 284 282 280 273 271 270 267
266 281 295 299 308 316 319 316 316 308 303 304 307 306 305 302 297 297 295 297 298 294 294 294 297 298 300 301 301 300 299 297 294 293 293 290 287 287 285 282 278 273 267
300 315 305 305 304 305 309 313 312 308 301 299 301 301 302 297 299 299 299 301 303 305 307 307 304 303 303 304 303 301 300 301 298 295 296 294 292 290 288 285 280 274 269
296 302 286 295 300 306 306 307 305 312 317 310 304 302 299 301 301 305 305 305 305 304 303 303 302 305 307 306 303 303 302 299 297 296 299 299 300 294 292 292 292 288 285
306 287 294 300 309 311 313 315 315 315 312 308 307 306 306 305 304 301 302 305 304 304 305 304 307 310 306 300 298 298 301 300 299 295 287 287 282 282 279 277 283 287 296
289 294 290 300 297 313 311 305 303 313 314 311 309 307 305 303 302 305 308 309 307 309 312 312 313 312 307 307 304 306 305 301 302 297 299 294 293 283 285 284 282 281 282
295 300 292 295 307 303 306 300 301 312 311 310 308 307 304 305 310 311 308 309 310 313 312 309 306 302 297 299 300 300 300 303 295 293 288 291 289 288 287 285 283 280 276
311 300 291 295 293 304 306 303 304 310 311 311 309 305 303 305 310 309 310 310 310 311 306 300 300 292 294 298 300 300 298 300 306 297 293 293 292 290 289 286 283 279 276
281 277 286 293 297 302 308 306 302 306 314 310 306 307 304 307 311 309 309 310 311 306 298 301 299 298 298 301 298 299 301 299 296 295 294 294 292 291 290 289 285 279 278
294 300 297 298 297 310 313 308 306 313 314 310 308 312 308 312 311 311 313 314 313 313 311 306 306 304 305 302 297 298 302 300 296 295 294 292 289 288 288 286 283 280 277
303 302 299 303 307 310 307 310 316 314 311 314 316 317 309 308 313 316 314 315 316 313 312 311 310 308 302 300 302 312 309 302 299 298 296 293 291 288 281 280 284 290 286
310 311 312 310 312 315 308 315 316 316 315 313 313 297 294 299 315 316 321 320 314 313 309 311 310 307 312 310 313 315 308 305 303 300 297 294 291 288 284 283 283 282 281
310 314 315 315 323 315 321 319 305 302 308 313 311 304 298 304 316 323 312 314 313 310 312 311 314 316 314 313 314 312 309 307 304 302 299 297 294 289 284 280 277 275 276
319 323 327 325 322 315 306 310 309 308 307 313 300 293 284 294 311 319 303 306 311 312 312 319 319 317 317 315 313 311 312 310 307 306 305 302 296 291 285 281 280 278 277
321 330 329 308 302 305 298 294 293 300 307 309 288 307 294 291 316 313 297 301 310 313 314 323 320 321 322 319 318 318 319 315 310 309 307 303 297 293 288 283 282 280 279
322 305 299 298 296 301 307 302 306 308 296 301 310 308 303 291 313 309 293 307 314 313 320 324 324 324 324 325 323 323 322 319 317 316 314 310 304 294 292 292 289 285 282
316 311 307 310 309 309 312 316 309 305 303 300 300 303 304 315 313 304 293 314 312 314 322 323 325 328 330 330 327 327 325 323 320 319 319 318 313 307 301 296 293 289 285
319 316 315 313 315 324 316 303 305 304 302 304 303 304 309 309 313 295 305 309 314 318 322 325 328 333 334 330 330 329 327 324 320 320 323 321 319 315 310 304 299 290 272
320 313 316 321 322 313 303 305 304 308 312 308 301 306 307 313 301 302 309 311 315 320 322 328 331 334 333 333 334 334 332 328 326 327 328 325 324 322 318 317 312 283 254
321 320 323 319 318 313 317 320 313 319 322 320 312 308 310 307 304 309 312 314 317 322 325 330 333 333 335 338 338 339 338 335 334 336 335 333 333 334 332 334 333 301 273
324 324 323 322 322 319 319 318 319 322 324 323 319 314 315 310 308 314 313 319 323 325 328 331 333 335 337 339 341 343 339 335 335 336 340 342 344 346 346 347 356 6 348